TimeAKST,TemperatureF,Dew PointF,Humidity,Sea Level PressureIn,VisibilityMPH,Wind Direction,Wind SpeedMPH,Gust SpeedMPH,PrecipitationIn,Events,Conditions,WindDirDegrees,DateUTC
12:53 AM,23.0,21.9,96,29.26,10.0,Calm,Calm,-,N/A,,Overcast,0,2013-02-21 09:53:00
1:53 AM,24.1,21.9,91,29.26,10.0,Calm,Calm,-,N/A,,Overcast,0,2013-02-21 10:53:00
3:23 AM,23.0,21.2,93,29.24,10.0,NNW,4.6,-,N/A,,Overcast,340,2013-02-21 12:23:00
3:53 AM,24.1,21.9,91,29.25,10.0,Calm,Calm,-,N/A,,Overcast,0,2013-02-21 12:53:00
4:53 AM,24.1,21.9,91,29.24,10.0,Calm,Calm,-,N/A,,Overcast,0,2013-02-21 13:53:00
5:53 AM,23.0,21.0,92,29.22,10.0,ENE,4.6,-,N/A,,Overcast,70,2013-02-21 14:53:00
6:09 AM,23.0,21.2,93,29.21,10.0,ENE,5.8,-,N/A,,Overcast,70,2013-02-21 15:09:00
6:18 AM,24.8,21.2,86,29.21,10.0,ENE,3.5,-,N/A,,Overcast,60,2013-02-21 15:18:00
6:53 AM,23.0,21.0,92,29.22,10.0,NE,3.5,-,N/A,,Overcast,40,2013-02-21 15:53:00
7:53 AM,23.0,21.0,92,29.20,10.0,Calm,Calm,-,N/A,,Overcast,0,2013-02-21 16:53:00
8:53 AM,24.1,21.9,91,29.19,10.0,Calm,Calm,-,N/A,,Overcast,0,2013-02-21 17:53:00
9:53 AM,25.0,21.9,88,29.18,10.0,NW,3.5,-,N/A,,Overcast,310,2013-02-21 18:53:00
10:37 AM,26.6,24.8,93,29.16,9.0,North,5.8,-,N/A,,Overcast,10,2013-02-21 19:37:00
10:43 AM,26.6,24.8,93,29.16,10.0,NNE,4.6,-,N/A,,Overcast,30,2013-02-21 19:43:00
10:53 AM,26.1,25.0,96,29.17,7.0,North,4.6,-,N/A,,Overcast,10,2013-02-21 19:53:00
11:31 AM,26.6,26.6,100,29.15,9.0,North,4.6,-,N/A,,Overcast,360,2013-02-21 20:31:00
11:53 AM,28.0,26.1,92,29.17,10.0,North,4.6,-,N/A,,Overcast,360,2013-02-21 20:53:00
11:57 AM,28.4,26.6,93,29.15,10.0,North,4.6,-,N/A,,Overcast,360,2013-02-21 20:57:00
12:53 PM,28.0,26.1,92,29.15,7.0,North,8.1,-,N/A,,Overcast,360,2013-02-21 21:53:00
1:26 PM,28.4,26.6,93,29.13,2.0,North,6.9,-,0.00,Snow,Light Snow,360,2013-02-21 22:26:00
1:53 PM,28.0,26.1,92,29.14,2.0,North,9.2,-,0.00,Snow,Light Snow,10,2013-02-21 22:53:00
2:53 PM,28.0,25.0,88,29.13,3.0,North,6.9,-,0.00,Snow,Light Snow,10,2013-02-21 23:53:00
2:58 PM,28.4,24.8,86,29.12,2.5,North,6.9,-,0.00,Snow,Light Snow,10,2013-02-21 23:58:00
3:46 PM,28.4,24.8,86,29.12,5.0,North,6.9,-,0.00,Snow,Light Snow,350,2013-02-22 00:46:00
3:53 PM,28.0,25.0,88,29.14,3.0,NNW,6.9,-,0.00,Snow,Light Snow,340,2013-02-22 00:53:00
3:55 PM,28.4,24.8,86,29.13,1.8,NNW,6.9,-,0.00,Snow,Light Snow,340,2013-02-22 00:55:00
4:16 PM,26.6,24.8,93,29.13,1.2,North,6.9,-,0.00,Snow,Light Snow,350,2013-02-22 01:16:00
4:48 PM,26.6,24.8,93,29.12,3.0,North,8.1,-,0.00,Snow,Light Snow,10,2013-02-22 01:48:00
4:53 PM,26.1,24.1,92,29.13,2.0,North,8.1,-,0.00,Snow,Light Snow,10,2013-02-22 01:53:00
5:17 PM,26.6,24.8,93,29.13,2.0,NNE,5.8,-,0.00,Snow,Light Snow,20,2013-02-22 02:17:00
5:49 PM,26.6,23.0,86,29.13,2.0,NNE,3.5,-,0.00,Snow,Light Snow,20,2013-02-22 02:49:00
5:53 PM,26.1,23.0,88,29.14,2.0,North,3.5,-,0.01,Snow,Light Snow,10,2013-02-22 02:53:00
6:53 PM,21.9,21.0,96,29.15,9.0,North,3.5,-,0.00,,Mostly Cloudy,350,2013-02-22 03:53:00
7:53 PM,21.0,19.9,96,29.16,10.0,NNW,3.5,-,N/A,,Overcast,330,2013-02-22 04:53:00
8:14 PM,21.2,19.4,93,29.16,10.0,NW,3.5,-,N/A,,Overcast,310,2013-02-22 05:14:00
8:33 PM,21.2,21.2,100,29.16,10.0,Calm,Calm,-,N/A,,Overcast,0,2013-02-22 05:33:00
8:53 PM,23.0,21.9,96,29.18,10.0,Calm,Calm,-,N/A,,Overcast,0,2013-02-22 05:53:00
9:51 PM,21.2,21.2,100,29.18,10.0,Calm,Calm,-,N/A,,Overcast,0,2013-02-22 06:51:00
9:53 PM,21.9,21.0,96,29.19,10.0,Calm,Calm,-,N/A,,Overcast,0,2013-02-22 06:53:00
10:00 PM,23.0,21.2,93,29.18,10.0,Calm,Calm,-,N/A,,Overcast,0,2013-02-22 07:00:00
10:31 PM,23.0,21.2,93,29.18,10.0,Calm,Calm,-,N/A,,Overcast,0,2013-02-22 07:31:00
10:53 PM,23.0,21.9,96,29.20,10.0,Calm,Calm,-,N/A,,Overcast,0,2013-02-22 07:53:00
11:53 PM,24.1,21.9,91,29.21,6.0,Calm,Calm,-,0.00,Snow,Light Snow,0,2013-02-22 08:53:00